WS Maaseik 1 Meer informatie WS Maaseik 1


WS Maaseik 2 Meer informatie WS Maaseik 2


Regen radar Meer informatie rain snow radar


Bezoek onze andere website:

Vorige versie
weerstation Maaseik


Bezoek ook eens deze sites:

Weerstation Geleen



Het weer levert geen direct gevaar op.    Er zijn geen waarschuwingen afgegeven.

15 daagse weersverwachting Brest (FR)

  • Overzicht
  • Per uur
  • 15 dagen
  • Extra
  • Vergelijk
  • Kaarten
  • Dagkaart
  • Meer »
  • Info
  • Statistieken
  • Directe link
    Temp 6h Neerslag Wind  
 09:00     19:04    Daglengte: 10:04 Vandaag
20:00
15°
1.7 mm
10
warningclass
 09:01     19:03    Daglengte: 10:02 Morgen
02:00
14°
26.5 mm
10
warningclass
08:00
13°
21.3 mm
6
14:00
14°
 
7
20:00
13°
3.5 mm
7
 09:03     19:01    Daglengte: 9:58 Zaterdag 30 Okt
02:00
13°
11.6 mm
9
08:00
13°
39.6 mm
5
14:00
14°
39.5 mm
3
20:00
12°
 
3
 09:04     18:59    Daglengte: 9:55 Zondag 31 Okt
02:00
12°
 
5
07:00
14°
43.3 mm
10
Locatie info
Region: Bretagne
Latitude: 48.3904°N
Longitude: -4.4866°E
59 masl
Postcode: 29200
Temp/Neerslag /Baro Onweer/Dauwpunt
    Temp Baro 1h Neerslag Dauwpunt Wind UV Bewolking  
 09:00     19:04    Daglengte: 10:04 Vandaag
15:00
16°
1006.0 hPa   12.5°
10
Windvlaag: 16 m/s
85%
16:00
16°
1004.8 hPa
52%
12.5°
10
Windvlaag: 15.6 m/s
86%
17:00
16°
1004.0 hPa
29%
12.5°
10
Windvlaag: 16.1 m/s
86%
18:00
16°
1003.1 hPa 0.2 mm
80%
12.6°
10
Windvlaag: 16.7 m/s
86%
19:00
15°
1002.5 hPa 0.5 mm
80%
13.0°
10
Windvlaag: 16.3 m/s
86%
20:00
15°
1002.0 hPa 1.0 mm
82%
12.7°
10
Windvlaag: 17.3 m/s
86% warningclass
21:00
15°
1001.6 hPa 1.3 mm
82%
12.8°
11
Windvlaag: 18.2 m/s
86% warningclass
22:00
15°
1000.9 hPa 2.0 mm
82%
12.4°
10
Windvlaag: 17.8 m/s
83% warningclass
23:00
15°
1000.1 hPa 2.9 mm
82%
12.1°
11
Windvlaag: 17.9 m/s
86% warningclass
 09:01     19:03    Daglengte: 10:02 Morgen
00:00
15°
999.4 hPa 5.5 mm
82%
12.1°
12
Windvlaag: 18.9 m/s
86% warningclass
01:00
15°
998.8 hPa 7.4 mm
82%
11.9°
11
Windvlaag: 19.3 m/s
86% warningclass
02:00
14°
997.7 hPa 7.3 mm
82%
12.4°
10
Windvlaag: 18.4 m/s
86% warningclass
03:00
15°
997.1 hPa 5.7 mm
82%
13.2°
8
Windvlaag: 17.6 m/s
86% warningclass
04:00
15°
997.0 hPa 4.7 mm
82%
12.5°
9
Windvlaag: 13.9 m/s
84%
05:00
14°
996.9 hPa 3.6 mm
82%
10.7°
8
Windvlaag: 14.1 m/s
80%
06:00
14°
996.9 hPa
77%
9.6°
7
Windvlaag: 10.5 m/s
25%
07:00
13°
997.6 hPa 3.5 mm
82%
8.7°
7
Windvlaag: 9.3 m/s
50%
08:00
13°
998.5 hPa 3.7 mm
82%
8.8°
6
Windvlaag: 8.1 m/s
47%
09:00
13°
999.5 hPa
69%
8.9°
6
Windvlaag: 1.5 m/s
18%
10:00
13°
1000.6 hPa
68%
9.1°
5
Windvlaag: 1.2 m/s
39%
11:00
13°
1001.4 hPa
25%
8.7°
6
Windvlaag: 0.5 m/s
11%
12:00
14°
1001.8 hPa
19%
8.7°
6
Windvlaag: 4.4 m/s
12%
13:00
14°
1001.8 hPa
19%
9.5°
7
Windvlaag: 5.6 m/s
16%
14:00
14°
1001.9 hPa
15%
9.6°
7
Windvlaag: 7.1 m/s
30%
15:00
14°
1002.0 hPa
25%
10.3°
7
Windvlaag: 8.8 m/s
13%
16:00
14°
1001.7 hPa
64%
10.9°
7
Windvlaag: 11 m/s
10%
17:00
13°
1001.7 hPa
67%
10.8°
8
Windvlaag: 11.3 m/s
18%
18:00
13°
1001.9 hPa
70%
10.2°
8
Windvlaag: 12.3 m/s
18%
19:00
13°
1001.6 hPa
70%
10.4°
8
Windvlaag: 12.6 m/s
13%
20:00
13°
1001.5 hPa 3.5 mm
76%
10.4°
7
Windvlaag: 12.8 m/s
40%
21:00
13°
1001.3 hPa 3.6 mm
78%
10.6°
7
Windvlaag: 12.3 m/s
53%
22:00
13°
1000.7 hPa 3.6 mm
80%
9.6°
7
Windvlaag: 12 m/s
67%
23:00
13°
1000.2 hPa
82%
9.1°
8
Windvlaag: 13.6 m/s
81%
 09:03     19:01    Daglengte: 9:58 Zaterdag 30 Okt
00:00
13°
999.6 hPa
81%
9.6°
9
Windvlaag: 14.4 m/s
80%
01:00
13°
998.7 hPa
82%
9.7°
9
Windvlaag: 14.4 m/s
85%
02:00
13°
997.7 hPa 4.4 mm
82%
10.3°
9
Windvlaag: 14.7 m/s
84%
03:00
13°
996.7 hPa 5.6 mm
82%
10.2°
9
Windvlaag: 14.7 m/s
86%
04:00
13°
995.8 hPa 6.0 mm
82%
10.8°
9
Windvlaag: 14.3 m/s
86%
05:00
13°
995.0 hPa 7.1 mm
82%
11.3°
8
Windvlaag: 13.7 m/s
86%
06:00
13°
994.5 hPa 8.2 mm
82%
11.3°
8
Windvlaag: 14.9 m/s
86%
07:00
13°
994.7 hPa 5.6 mm
82%
11.6°
6
Windvlaag: 16.6 m/s
86%
08:00
13°
994.9 hPa 7.2 mm
82%
11.6°
5
Windvlaag: 15.2 m/s
86%
09:00
13°
995.0 hPa
65%
11.6°
4
Windvlaag: 13.7 m/s
86%
10:00
13°
995.7 hPa
65%
11.4°
4
Windvlaag: 12.3 m/s
80%
11:00
12°
996.1 hPa 6.8 mm
77%
10.0°
3
Windvlaag: 2.3 m/s
86%
12:00
13°
996.2 hPa 11.0 mm
73%
10.4°
3
Windvlaag: -1.2 m/s
97%
13:00
13°
996.8 hPa 10.9 mm
28%
9.6°
3
Windvlaag: -0.5 m/s
95%
14:00
14°
997.2 hPa 10.8 mm
22%
10.1°
3
Windvlaag: -1.5 m/s
79%
15:00
14°
997.5 hPa
22%
8.6°
3
Windvlaag: -1.3 m/s
83%
16:00
14°
997.9 hPa
27%
7.4°
4
Windvlaag: 0.7 m/s
87%
17:00
14°
998.7 hPa
29%
8.1°
4
Windvlaag: 0.5 m/s
78%
18:00
13°
999.4 hPa
22%
9.0°
3
Windvlaag: 0.9 m/s
83%
19:00
12°
1000.0 hPa
25%
9.5°
3
Windvlaag: 1 m/s
56%
20:00
12°
1000.4 hPa
30%
8.6°
3
Windvlaag: 2 m/s
44%
21:00
12°
1000.9 hPa
72%
8.8°
3
Windvlaag: 4.1 m/s
61%
22:00
12°
1001.1 hPa
70%
9.2°
4
Windvlaag: 5.3 m/s
36%
23:00
12°
1001.0 hPa
70%
9.5°
4
Windvlaag: 6 m/s
71%
 09:04     18:59    Daglengte: 9:55 Zondag 31 Okt
00:00
12°
1000.9 hPa
21%
10.3°
4
Windvlaag: 7.8 m/s
78%
01:00
13°
1000.4 hPa
40%
10.5°
5
Windvlaag: 9.2 m/s
75%
02:00
12°
999.7 hPa
89%
10.8°
5
Windvlaag: 10.9 m/s
90%
02:00
13°
998.9 hPa
98%
11.3°
6
Windvlaag: 12.4 m/s
92%
03:00
13°
998.1 hPa 11.2 mm
100%
11.6°
8
Windvlaag: 14.2 m/s
86%
04:00
14°
996.9 hPa 7.1 mm
100%
12.2°
9
Windvlaag: 15.8 m/s
100%
05:00
14°
996.1 hPa 7.2 mm
100%
12.7°
9
Windvlaag: 16.6 m/s
100%
06:00
14°
995.3 hPa 7.8 mm
100%
12.8°
8
Windvlaag: 16 m/s
99%
07:00
14°
994.4 hPa 9.9 mm
100%
13.3°
10
Windvlaag: 16.5 m/s
100%
08:00
15°
992.2 hPa 15.3 mm
100%
13.3°
11
Windvlaag: 16.3 m/s
100%
09:00
15°
992.1 hPa 18.2 mm
100%
13.9°
10
Windvlaag: 17.9 m/s
100% warningclass
10:00
14°
992.7 hPa 18.7 mm
100%
13.4°
6
Windvlaag: 13.1 m/s
80%
11:00
14°
993.0 hPa 17.0 mm
100%
12.8°
8
Windvlaag: 8 m/s
93%
12:00
14°
993.6 hPa 17.0 mm
100%
10.6°
7
Windvlaag: 8.8 m/s
91%
13:00
14°
994.3 hPa
100%
8.8°
8
Windvlaag: 8.6 m/s
40%
Temp/Neerslag /Baro Onweer/Dauwpunt
    Temp Baro Neerslag Dauwpunt Wind Bewolking  
 09:00     19:04    Daglengte: 10:04 Vandaag
17:00
16°
1004.0 hPa   12.5°
10
86%
20:00
15°
1002.0 hPa 1.7 mm 12.7°
10
86% warningclass
23:00
15°
1000.1 hPa 6.3 mm 12.1°
11
86% warningclass
 09:01     19:03    Daglengte: 10:02 Morgen
02:00
14°
997.7 hPa 20.2 mm 12.4°
10
86% warningclass
05:00
14°
996.9 hPa 14.0 mm 10.7°
8
80%
08:00
13°
998.5 hPa 7.3 mm 8.8°
6
47%
11:00
13°
1001.4 hPa   8.7°
6
11%
14:00
14°
1001.9 hPa   9.6°
7
30%
17:00
13°
1001.7 hPa   10.8°
8
18%
20:00
13°
1001.5 hPa 3.5 mm 10.4°
7
40%
23:00
13°
1000.2 hPa 7.2 mm 9.1°
8
81%
 09:03     19:01    Daglengte: 9:58 Zaterdag 30 Okt
02:00
13°
997.7 hPa 4.4 mm 10.3°
9
84%
05:00
13°
995.0 hPa 18.6 mm 11.3°
8
86%
08:00
13°
994.9 hPa 21.0 mm 11.6°
5
86%
11:00
12°
996.1 hPa 6.8 mm 10.0°
3
86%
14:00
14°
997.2 hPa 32.7 mm 10.1°
3
79%
17:00
14°
998.7 hPa   8.1°
4
78%
20:00
12°
1000.4 hPa   8.6°
3
44%
23:00
12°
1001.0 hPa   9.5°
4
71%
 09:04     18:59    Daglengte: 9:55 Zondag 31 Okt
02:00
12°
999.7 hPa   10.8°
5
90%
04:00
14°
996.9 hPa 18.3 mm 12.2°
9
100%
07:00
14°
994.4 hPa 25.0 mm 13.3°
10
100%
10:00
14°
992.7 hPa 52.2 mm 13.4°
6
80%
13:00
14°
994.3 hPa 50.9 mm 8.8°
8
40%
16:00
13°
1000.1 hPa 52.5 mm 6.4°
8
0%
19:00
12°
1001.6 hPa 53.0 mm 7.6°
9
0%
22:00
12°
1001.9 hPa 55.1 mm 7.7°
11
1%
 09:06     18:58    Daglengte: 9:52 Maandag 01 Nov
01:00
11°
1002.3 hPa 57.0 mm 6.6°
10
1%
04:00
11°
1002.2 hPa 58.0 mm 7.7°
12
1%
07:00
11°
1003.2 hPa 59.2 mm 7.8°
12
1%
10:00
12°
1006.5 hPa 59.4 mm 7.1°
10
0%
13:00
13°
1008.0 hPa 59.8 mm 7.5°
10
0%
16:00
13°
1007.7 hPa 60.3 mm 8.1°
10
0%
19:00
12°
1007.5 hPa 60.5 mm 7.6°
10
1%
22:00
13°
1006.3 hPa 60.9 mm 8.7°
10
1%
 09:08     18:56    Daglengte: 9:48 Dinsdag 02 Nov
01:00
12°
1003.0 hPa 62.9 mm 9.3°
11
1%
04:00
12°
999.9 hPa 64.6 mm 9.8°
12
1%
07:00
12°
997.9 hPa 69.3 mm 7.7°
11
1%
10:00
11°
997.5 hPa 69.7 mm 7.0°
13
0%
13:00
12°
998.0 hPa 70.8 mm 7.1°
13
0%
16:00
12°
999.2 hPa 72.3 mm 6.2°
11
1%
19:00
11°
1001.3 hPa 73.2 mm 6.5°
8
1%
22:00
10°
1002.6 hPa 74.3 mm 6.2°
7
1%
 09:09     18:55    Daglengte: 9:46 Woensdag 03 Nov
01:00
11°
1003.4 hPa 75.5 mm 6.2°
8
1%
04:00
11°
1003.6 hPa 76.5 mm 6.5°
8
0%
07:00
11°
1003.8 hPa 77.3 mm 7.0°
7
0%
10:00
11°
1005.2 hPa 78.0 mm 7.2°
7
1%
13:00
12°
1005.6 hPa 79.2 mm 7.0°
9
1%
16:00
12°
1005.4 hPa 80.1 mm 6.7°
9
1%
19:00
11°
1006.5 hPa 80.7 mm 6.5°
8
1%
22:00
10°
1007.2 hPa 81.5 mm 5.8°
7
0%
 09:11     18:53    Daglengte: 9:42 Donderdag 04 Nov
01:00
10°
1007.6 hPa 82.1 mm 6.1°
8
0%
04:00
10°
1008.0 hPa 82.7 mm 5.7°
8
0%
07:00
10°
1008.8 hPa 83.5 mm 5.8°
10
0%
10:00
11°
1010.9 hPa 84.3 mm 6.7°
9
1%
13:00
13°
1013.1 hPa 168.9 mm 6.4°
8
0%
19:00
11°
1016.5 hPa 170.7 mm 5.7°
7
0%
 09:12     18:51    Daglengte: 9:39 Vrijdag 05 Nov
01:00
10°
1018.8 hPa 171.3 mm 4.7°
5
1%
07:00
11°
1019.1 hPa 171.5 mm 5.9°
4
1%
13:00
13°
1020.4 hPa 172.0 mm 8.4°
6
1%
19:00
13°
1020.0 hPa 173.2 mm 9.0°
7
1%
 09:14     18:50    Daglengte: 9:36 Zaterdag 06 Nov
01:00
12°
1020.0 hPa 174.4 mm 10.0°
5
1%
07:00
12°
1018.9 hPa 175.4 mm 10.2°
5
1%
13:00
14°
1017.9 hPa 175.9 mm 9.4°
8
1%
19:00
13°
1013.7 hPa 176.2 mm 10.0°
10
1%
 09:15     18:49    Daglengte: 9:34 Zondag 07 Nov
01:00
14°
1008.4 hPa 176.6 mm 10.8°
12
1%
07:00
13°
1004.8 hPa 191.3 mm 10.1°
9
1%
13:00
12°
1017.7 hPa 0.6 mm 6.9°
3
76%
19:00
10°
1017.4 hPa 0.6 mm 6.9°
2
75%
 09:17     18:47    Daglengte: 9:30 Maandag 08 Nov
01:00
10°
Voelt als: 9.0°
1018.2 hPa 0.6 mm 6.8°
2
57%
07:00
Voelt als: 8.7°
1018.6 hPa 0.5 mm 6.3°
2
60%
13:00
12°
1020.2 hPa 0.3 mm 6.7°
2
69%
19:00
10°
1020.3 hPa 0.4 mm 6.8°
1
68%
 09:19     18:46    Daglengte: 9:27 Dinsdag 09 Nov
01:00
10°
Voelt als: 9.7°
1021.0 hPa 0.4 mm 6.9°
1
70%
07:00
Voelt als: 8.9°
1021.2 hPa 0.4 mm 6.9°
2
67%
13:00
12°
1022.9 hPa 0.2 mm 7.3°
2
68%
19:00
10°
1022.8 hPa 0.4 mm 7.4°
2
67%
 09:20     18:44    Daglengte: 9:24 Woensdag 10 Nov
01:00
10°
Voelt als: 9.5°
1023.5 hPa 0.4 mm 7.2°
1
62%
07:00
Voelt als: 8.6°
1023.1 hPa 0.3 mm 6.7°
2
62%
13:00
12°
1023.6 hPa 0.4 mm 7.4°
2
60%
19:00
10°
1022.5 hPa 0.5 mm 7.4°
1
54%
 09:22     18:43    Daglengte: 9:21 Donderdag 11 Nov
01:00
1022.5 hPa 0.4 mm 7.1°
1
52%
07:00
1021.3 hPa 0.7 mm 6.5°
0
50%
13:00
12°
1021.3 hPa 0.5 mm 6.7°
1
52%
19:00
10°
Voelt als: 9.7°
1020.8 hPa 0.1 mm 6.3°
0
52%
 09:23     18:42    Daglengte: 9:19 Vrijdag 12 Nov
01:00
Voelt als: 8.5°
1021.0 hPa 0.7 mm 5.5°
0
49%
07:00
1020.6 hPa 0.3 mm 5.0°
1
52%
13:00
11°
1021.2 hPa 0.2 mm 6.1°
0
62%
  CAPE Lifted Index Hail Supercell Tornado SRH 3km CL BTM PRES CL TOP PRES Swiss DWD icon SMHI TS
 09:00     19:04    Daglengte: 10:04 Vandaag
15:00 1 J/kg 4.1 K 0 % 0 % 0 % 0 m²/s² 0 0 6.11 3
16:00 0 J/kg 3.0 K 0 % 0 % 0 % 0 m²/s² 0 0 4.2 3
17:00 1 J/kg 2.3 K 0 % 0 % 0 % 0 m²/s² 0 0 6.02 3
18:00 0 J/kg 1.8 K 0 % 0 % 0 % 0 m²/s² 0 0 5.82 61
19:00 0 J/kg 2.4 K 0 % 0 % 0 % 0 m²/s² 0 0 6.51 61
20:00 19 J/kg 2.4 K 0 % 0 % 0 % 0 m²/s² 0 0 3.69 61
21:00 21 J/kg 1.8 K 0 % 0 % 0 % 0 m²/s² 0 0 1.83 61
22:00 34 J/kg 1.0 K 0 % 0 % 0 % 0 m²/s² 0 0 1.09 61
23:00 46 J/kg 1.7 K 0 % 0 % 0 % 0 m²/s² 0 0 1.79 61
 09:01     19:03    Daglengte: 10:02 Morgen
00:00 106 J/kg 1.4 K 0 % 0 % 0 % 0 m²/s² 0 0 1.49 63
01:00 75 J/kg 1.8 K 0 % 0 % 0 % 0 m²/s² 0 0 2.13 63
02:00 190 J/kg 0.6 K 0 % 0 % 0 % 0 m²/s² 0 0 1.62 63
03:00 229 J/kg 0.5 K 0 % 0 % 0 % 0 m²/s² 0 0 1.97 63
04:00 389 J/kg -0.7 K 0 % 0 % 0 % 0 m²/s² 0 0 1.4 81
05:00 159 J/kg 0.9 K 0 % 0 % 0 % 0 m²/s² 0 0 3.63 80
06:00 104 J/kg 1.0 K 0 % 0 % 0 % 0 m²/s² 0 0 4.93 3
07:00 98 J/kg 0.6 K 0 % 0 % 0 % 0 m²/s² 0 0 5.07 80
08:00 99 J/kg 0.8 K 0 % 0 % 0 % 0 m²/s² 0 0 6.17 80
09:00 94 J/kg 1.0 K 0 % 0 % 0 % 0 m²/s² 0 0 7.33 2
10:00 186 J/kg 0.3 K 0 % 0 % 0 % 0 m²/s² 0 0 6.09 2
11:00 318 J/kg -0.4 K 0 % 0 % 0 % 0 m²/s² 0 0 4.88 1
12:00 222 J/kg 0.2 K 0 % 0 % 0 % 0 m²/s² 0 0 6.29 1
13:00 197 J/kg 0.3 K 0 % 0 % 0 % 0 m²/s² 0 0 5.43 2
14:00 118 J/kg 0.6 K 0 % 0 % 0 % 0 m²/s² 0 0 3.51 3
15:00 162 J/kg 0.1 K 0 % 0 % 0 % 0 m²/s² 0 0 2.41 2
16:00 190 J/kg -0.1 K 0 % 0 % 0 % 0 m²/s² 0 0 2.27 1
17:00 255 J/kg -0.6 K 0 % 0 % 0 % 0 m²/s² 0 0 1.59 2
18:00 298 J/kg -0.6 K 0 % 0 % 0 % 0 m²/s² 0 0 1.14 2
19:00 320 J/kg -0.9 K 0 % 0 % 0 % 0 m²/s² 0 0 1.14 1
20:00 214 J/kg -0.7 K 0 % 0 % 0 % 0 m²/s² 0 0 1.25 3
21:00 340 J/kg -1.4 K 0 % 0 % 0 % 0 m²/s² 0 0 0.25 3
22:00 146 J/kg -0.3 K 0 % 0 % 0 % 0 m²/s² 0 0 1.71 80
23:00 101 J/kg 0.9 K 0 % 0 % 0 % 0 m²/s² 0 0 3.12 80
 09:03     19:01    Daglengte: 9:58 Zaterdag 30 Okt
00:00 100 J/kg 1.9 K 0 % 0 % 0 % 0 m²/s² 0 0 3.67 80
01:00 67 J/kg 1.9 K 0 % 0 % 0 % 0 m²/s² 0 0 3.34 80
02:00 71 J/kg 2.2 K 0 % 0 % 0 % 0 m²/s² 0 0 3.64 80
03:00 149 J/kg 1.5 K 0 % 0 % 0 % 0 m²/s² 0 0 1.95 63
04:00 161 J/kg 1.3 K 0 % 0 % 0 % 0 m²/s² 0 0 1.54 63
05:00 153 J/kg 1.3 K 0 % 0 % 0 % 0 m²/s² 0 0 1.51 63
06:00 134 J/kg 0.9 K 0 % 0 % 0 % 0 m²/s² 0 0 1.14 63
07:00 143 J/kg 0.8 K 0 % 0 % 0 % 0 m²/s² 0 0 0.98 61
08:00 78 J/kg 1.8 K 0 % 0 % 0 % 0 m²/s² 0 0 1.92 61
09:00 42 J/kg 3.3 K 0 % 0 % 0 % 0 m²/s² 0 0 3.48 3
10:00 16 J/kg 4.3 K 0 % 0 % 0 % 0 m²/s² 0 0 4.66 3
11:00 9 J/kg 4.9 K 0 % 0 % 0 % 0 m²/s² 0 0 8.59 3
12:00 51 J/kg 3.8 K 0 % 0 % 0 % 0 m²/s² 0 0 9.23 3
13:00 70 J/kg 3.9 K 0 % 0 % 0 % 0 m²/s² 0 0 8.31 3
14:00 140 J/kg 3.6 K 0 % 0 % 0 % 0 m²/s² 0 0 7.8 2
15:00 79 J/kg 4.9 K 0 % 0 % 0 % 0 m²/s² 0 0 9.1 3
16:00 47 J/kg 6.0 K 0 % 0 % 0 % 0 m²/s² 0 0 9.6 3
17:00 101 J/kg 5.7 K 0 % 0 % 0 % 0 m²/s² 0 0 8.34 3
18:00 146 J/kg 5.9 K 0 % 0 % 0 % 0 m²/s² 0 0 7.94 3
19:00 156 J/kg 6.2 K 0 % 0 % 0 % 0 m²/s² 0 0 8.24 2
20:00 122 J/kg 6.7 K 0 % 0 % 0 % 0 m²/s² 0 0 8.26 3
21:00 107 J/kg 6.4 K 0 % 0 % 0 % 0 m²/s² 0 0 7.69 2
22:00 117 J/kg 6.1 K 0 % 0 % 0 % 0 m²/s² 0 0 7.27 2
23:00 144 J/kg 5.5 K 0 % 0 % 0 % 0 m²/s² 0 0 6.58 2
 09:04     18:59    Daglengte: 9:55 Zondag 31 Okt
00:00 147 J/kg 4.9 K 0 % 0 % 0 % 0 m²/s² 0 0 6.13 3
01:00 130 J/kg 4.8 K 0 % 0 % 0 % 0 m²/s² 0 0 6.09 3
02:00 111 J/kg 4.6 K 0 % 0 % 0 % 0 m²/s² 0 0 5.86 3
02:00 112 J/kg 4.5 K 0 % 0 % 0 % 0 m²/s² 0 0 5.76 3
03:00 123 J/kg 4.0 K 0 % 0 % 0 % 0 m²/s² 0 0 4.69 61
04:00 193 J/kg 2.9 K 0 % 0 % 0 % 0 m²/s² 0 0 3.23 61
05:00 204 J/kg 2.2 K 0 % 0 % 0 % 0 m²/s² 0 0 2.71 80
06:00 144 J/kg 1.0 K 0 % 0 % 0 % 0 m²/s² 0 0 1.12 80
07:00 339 J/kg -0.8 K 0 % 0 % 0 % 0 m²/s² 0 0 -0.5 63
08:00 205 J/kg -0.3 K 0 % 0 % 0 % 0 m²/s² 0 0 0.15 61
09:00 341 J/kg -1.3 K 0 % 0 % 0 % 0 m²/s² 0 0 -1.15 63
10:00 169 J/kg 0.0 K 0 % 0 % 0 % 0 m²/s² 0 0 0.12 63
11:00 154 J/kg -0.6 K 0 % 0 % 0 % 0 m²/s² 0 0 -0.18 80
12:00 150 J/kg 1.9 K 0 % 0 % 0 % 0 m²/s² 0 0 2.32 3
13:00 82 J/kg 3.0 K 0 % 0 % 0 % 0 m²/s² 0 0 3.66 3
Temp Baro Wind Neerslag
  EWN Forecast EWN WRFDA DWD ICON FMI HIRLAM MET Norway GFS
 09:00     19:04    Daglengte: 10:04 Vandaag
17:00 15.9° 1004.0 hPa 9.9 m/s 0.0 mm 16.6° 1004.1 hPa 10.0 m/s 0.0 mm 16.3° 1004.1 hPa 8.1 m/s -2.0 mm 15.9° 1003.7 hPa 10.4 m/s 0.0 mm 15.4° 1003.9 hPa 10.6 m/s
20:00 15.4° 1002.0 hPa 10.5 m/s 1.7 mm 15.1° 1002.3 hPa 8.9 m/s 0.9 mm 15.8° 1001.9 hPa 7.9 m/s 2.9 mm 15.5° 1001.7 hPa 11.0 m/s 0.0 mm 15.0° 1002.0 hPa 11.3 m/s
23:00 15.3° 1000.1 hPa 10.8 m/s 6.3 mm 14.7° 999.9 hPa 11.1 m/s 18.2 mm 15.5° 1000.3 hPa 8.4 m/s 5.2 mm 15.5° 998.8 hPa 12.5 m/s 0.0 mm 14.4° 999.8 hPa 12.6 m/s
 09:01     19:03    Daglengte: 10:02 Morgen
02:00 14.4° 997.7 hPa 9.6 m/s 20.2 mm 14.4° 998.2 hPa 8.9 m/s 44.4 mm 14.3° 997.9 hPa 8.9 m/s 18.3 mm 15.2° 996.9 hPa 9.3 m/s 0.0 mm 13.6° 998.7 hPa 12.0 m/s
05:00 14.1° 996.9 hPa 8.1 m/s 14.0 mm 13.4° 997.1 hPa 9.1 m/s 48.2 mm 14.5° 996.5 hPa 5.4 m/s 8.4 mm 13.9° 997.3 hPa 9.0 m/s 0.0 mm 13.4° 997.3 hPa 11.0 m/s
08:00 13.0° 998.5 hPa 6.4 m/s 7.3 mm 12.6° 999.2 hPa 7.2 m/s 49.4 mm 13.7° 997.2 hPa 5.3 m/s 0.9 mm 13.0° 999.7 hPa 7.1 m/s 0.0 mm 12.5° 999.7 hPa 8.9 m/s
11:00 13.4° 1001.4 hPa 5.9 m/s 0.0 mm 13.4° 1001.3 hPa 6.3 m/s 49.7 mm 13.5° 1000.4 hPa 5.7 m/s 0.1 mm 13.5° 1001.8 hPa 7.5 m/s 0.0 mm 13.0° 1002.1 hPa 7.2 m/s
14:00 14.1° 1001.9 hPa 6.8 m/s 0.0 mm 14.7° 1002.0 hPa 7.6 m/s 49.9 mm 14.4° 1001.7 hPa 6.0 m/s 0.0 mm 14.0° 1001.8 hPa 8.2 m/s 0.0 mm 14.1° 1003.0 hPa 8.4 m/s
17:00 13.5° 1001.7 hPa 7.8 m/s 0.0 mm 14.4° 1001.1 hPa 8.5 m/s 49.9 mm 13.9° 1001.9 hPa 7.3 m/s 0.1 mm 13.0° 1001.1 hPa 8.7 m/s 0.0 mm 13.9° 1001.8 hPa 8.1 m/s
20:00 13.0° 1001.5 hPa 7.4 m/s 3.5 mm 12.4° 1001.0 hPa 7.0 m/s 49.9 mm 13.2° 1001.8 hPa 7.0 m/s 0.2 mm 13.1° 1000.9 hPa 7.9 m/s 0.0 mm 12.5° 1001.3 hPa 8.1 m/s
23:00 13.2° 1000.2 hPa 8.4 m/s 7.2 mm 13.2° 1000.0 hPa 7.1 m/s 49.9 mm 13.1° 1000.7 hPa 6.9 m/s 1.6 mm 13.6° 999.1 hPa 9.3 m/s 0.0 mm 13.1° 1000.1 hPa 8.6 m/s
 09:03     19:01    Daglengte: 9:58 Zaterdag 30 Okt
02:00 13.4° 997.7 hPa 9.2 m/s 4.4 mm 13.0° 997.5 hPa 6.6 m/s 49.9 mm 13.4° 998.7 hPa 7.4 m/s 3.6 mm 13.9° 995.1 hPa 12.4 m/s 0.0 mm 13.1° 997.1 hPa 9.7 m/s
05:00 13.3° 995.0 hPa 7.9 m/s 18.6 mm 13.6° 995.1 hPa 7.8 m/s 50.9 mm 13.3° 996.5 hPa 8.3 m/s 12.8 mm 13.3° 994.3 hPa 5.9 m/s 0.0 mm 13.2° 993.8 hPa 10.9 m/s
08:00 13.2° 994.9 hPa 5.1 m/s 21.0 mm 12.5° 994.3 hPa 6.8 m/s 67.8 mm 13.4° 996.6 hPa 3.9 m/s 7.1 mm 12.4° 994.9 hPa 4.1 m/s 0.0 mm 10.8° 995.0 hPa 3.0 m/s
11:00 12.2° 996.1 hPa 3.1 m/s 6.8 mm 11.9° 995.9 hPa 4.1 m/s 94.5 mm 13.5° 998.4 hPa 2.8 m/s 0.2 mm 12.8° 996.7 hPa 5.5 m/s
14:00 13.6° 997.2 hPa 3.3 m/s 32.7 mm 14.0° 997.3 hPa 5.6 m/s 96.8 mm 14.3° 998.7 hPa 2.5 m/s 0.1 mm 13.6° 999.2 hPa 6.6 m/s
17:00 13.7° 998.7 hPa 3.6 m/s 0.0 mm 14.1° 998.9 hPa 4.0 m/s 96.9 mm 13.9° 999.7 hPa 3.5 m/s 0.0 mm 13.6° 1000.3 hPa 5.1 m/s
20:00 12.0° 1000.4 hPa 3.1 m/s 0.0 mm 12.0° 1000.9 hPa 3.3 m/s 96.9 mm 13.2° 1000.4 hPa 2.4 m/s 0.0 mm 11.6° 1001.7 hPa 4.6 m/s
23:00 12.0° 1001.0 hPa 4.1 m/s 0.0 mm 12.0° 1001.2 hPa 4.5 m/s 96.9 mm 13.1° 1000.2 hPa 2.9 m/s 0.1 mm 12.0° 1001.3 hPa 6.3 m/s
 09:04     18:59    Daglengte: 9:55 Zondag 31 Okt
02:00 12.3° 999.7 hPa 5.4 m/s 0.0 mm 12.0° 999.8 hPa 5.7 m/s 97.1 mm 13.7° 998.8 hPa 3.2 m/s 0.0 mm 13.2° 1000.0 hPa 8.7 m/s
04:00 13.7° 996.9 hPa 8.6 m/s 18.3 mm 13.5° 998.2 hPa 8.6 m/s 97.6 mm 14.9° 995.1 hPa 6.7 m/s 1.7 mm 13.9° 997.3 hPa 10.0 m/s
07:00 14.3° 994.4 hPa 9.7 m/s 25.0 mm 14.2° 996.2 hPa 9.5 m/s 107.1 mm 15.3° 992.3 hPa 9.2 m/s 5.6 mm 13.8° 995.6 hPa 10.8 m/s
10:00 14.0° 992.7 hPa 6.3 m/s 52.2 mm 13.2° 996.0 hPa 8.4 m/s 132.9 mm 14.2° 991.9 hPa 5.8 m/s 11.8 mm 12.4° 995.8 hPa 6.1 m/s
13:00 14.1° 994.3 hPa 7.7 m/s 50.9 mm 13.7° 997.7 hPa 5.9 m/s 151.9 mm 14.2° 993.4 hPa 8.2 m/s 0.5 mm 12.3° 998.2 hPa 9.5 m/s
16:00 13.0° 1000.1 hPa 7.9 m/s 52.5 mm 13.0° 1000.1 hPa 7.9 m/s 52.5 mm
19:00 11.8° 1001.6 hPa 9.4 m/s 53.0 mm 11.8° 1001.6 hPa 9.4 m/s 53.0 mm
22:00 11.6° 1001.9 hPa 11.3 m/s 55.1 mm 11.6° 1001.9 hPa 11.3 m/s 55.1 mm
 09:06     18:58    Daglengte: 9:52 Maandag 01 Nov
01:00 11.3° 1002.3 hPa 9.9 m/s 57.0 mm 11.3° 1002.3 hPa 9.9 m/s 57.0 mm
04:00 11.3° 1002.2 hPa 12.3 m/s 58.0 mm 11.3° 1002.2 hPa 12.3 m/s 58.0 mm
07:00 11.3° 1003.2 hPa 12.0 m/s 59.2 mm 11.3° 1003.2 hPa 12.0 m/s 59.2 mm
10:00 12.3° 1006.5 hPa 9.7 m/s 59.4 mm 12.3° 1006.5 hPa 9.6 m/s 59.4 mm
13:00 13.2° 1008.0 hPa 9.9 m/s 59.8 mm 13.2° 1008.0 hPa 9.9 m/s 59.8 mm
16:00 12.8° 1007.7 hPa 10.2 m/s 60.3 mm 12.8° 1007.7 hPa 10.2 m/s 60.3 mm
19:00 12.2° 1007.5 hPa 9.7 m/s 60.5 mm 12.2° 1007.5 hPa 9.7 m/s 60.5 mm
22:00 12.6° 1006.3 hPa 10.0 m/s 60.9 mm 12.6° 1006.3 hPa 10.0 m/s 60.9 mm
 09:08     18:56    Daglengte: 9:48 Dinsdag 02 Nov
01:00 12.2° 1003.0 hPa 11.3 m/s 62.9 mm 12.2° 1003.0 hPa 11.3 m/s 62.9 mm
04:00 12.2° 999.9 hPa 12.0 m/s 64.6 mm 12.2° 999.9 hPa 12.0 m/s 64.6 mm
07:00 11.7° 997.9 hPa 11.1 m/s 69.3 mm 11.7° 997.9 hPa 11.1 m/s 69.3 mm
10:00 11.4° 997.5 hPa 13.1 m/s 69.7 mm 11.4° 997.5 hPa 13.1 m/s 69.7 mm
13:00 12.0° 998.0 hPa 13.1 m/s 70.8 mm 12.0° 998.0 hPa 13.1 m/s 70.8 mm
16:00 11.7° 999.2 hPa 11.2 m/s 72.3 mm 11.7° 999.2 hPa 11.2 m/s 72.3 mm
19:00 10.5° 1001.3 hPa 8.1 m/s 73.2 mm 10.5° 1001.3 hPa 8.1 m/s 73.2 mm
22:00 10.4° 1002.6 hPa 7.5 m/s 74.3 mm 10.4° 1002.6 hPa 7.5 m/s 74.3 mm
 09:09     18:55    Daglengte: 9:46 Woensdag 03 Nov
01:00 10.6° 1003.4 hPa 8.1 m/s 75.5 mm 10.6° 1003.4 hPa 8.1 m/s 75.5 mm
04:00 10.5° 1003.6 hPa 7.6 m/s 76.5 mm 10.5° 1003.6 hPa 7.6 m/s 76.5 mm
07:00 10.8° 1003.8 hPa 7.2 m/s 77.3 mm 10.8° 1003.8 hPa 7.2 m/s 77.3 mm
10:00 11.5° 1005.2 hPa 7.5 m/s 78.0 mm 11.5° 1005.2 hPa 7.5 m/s 78.0 mm
13:00 12.1° 1005.6 hPa 8.8 m/s 79.2 mm 12.1° 1005.6 hPa 8.8 m/s 79.2 mm
16:00 11.9° 1005.4 hPa 9.2 m/s 80.1 mm 11.9° 1005.4 hPa 9.2 m/s 80.1 mm
19:00 10.7° 1006.5 hPa 8.0 m/s 80.7 mm 10.7° 1006.5 hPa 8.0 m/s 80.7 mm
22:00 10.4° 1007.2 hPa 7.0 m/s 81.5 mm 10.4° 1007.2 hPa 7.0 m/s 81.5 mm
 09:11     18:53    Daglengte: 9:42 Donderdag 04 Nov
01:00 10.3° 1007.6 hPa 7.6 m/s 82.1 mm 10.3° 1007.6 hPa 7.6 m/s 82.1 mm
04:00 10.1° 1008.0 hPa 8.4 m/s 82.7 mm 10.1° 1008.0 hPa 8.4 m/s 82.7 mm
07:00 10.4° 1008.8 hPa 10.1 m/s 83.5 mm 10.4° 1008.8 hPa 10.1 m/s 83.5 mm
10:00 11.3° 1010.9 hPa 8.8 m/s 84.3 mm 11.3° 1010.9 hPa 8.8 m/s 84.3 mm
13:00 12.5° 1013.1 hPa 7.5 m/s 84.5 mm 12.5° 1013.1 hPa 7.5 m/s 84.5 mm
19:00 10.8° 1016.5 hPa 7.2 m/s 85.4 mm 10.8° 1016.5 hPa 7.2 m/s 85.4 mm
 09:12     18:51    Daglengte: 9:39 Vrijdag 05 Nov
01:00 10.3° 1018.8 hPa 5.4 m/s 85.7 mm 10.3° 1018.8 hPa 5.4 m/s 85.7 mm
07:00 10.9° 1019.1 hPa 4.0 m/s 85.7 mm 10.9° 1019.1 hPa 4.0 m/s 85.7 mm
13:00 12.6° 1020.4 hPa 6.2 m/s 86.1 mm 12.6° 1020.4 hPa 6.2 m/s 86.1 mm
19:00 12.5° 1020.0 hPa 6.5 m/s 86.7 mm 12.5° 1020.0 hPa 6.5 m/s 86.7 mm
 09:14     18:50    Daglengte: 9:36 Zaterdag 06 Nov
01:00 12.5° 1020.0 hPa 4.8 m/s 87.3 mm 12.5° 1020.0 hPa 4.8 m/s 87.3 mm
07:00 11.8° 1018.9 hPa 4.9 m/s 87.8 mm 11.8° 1018.9 hPa 4.9 m/s 87.8 mm
13:00 13.9° 1017.9 hPa 8.1 m/s 88.0 mm 13.9° 1017.9 hPa 8.0 m/s 88.0 mm
19:00 13.4° 1013.7 hPa 10.4 m/s 88.1 mm 13.4° 1013.7 hPa 10.4 m/s 88.1 mm
 09:15     18:49    Daglengte: 9:34 Zondag 07 Nov
01:00 13.8° 1008.4 hPa 12.2 m/s 88.3 mm 13.8° 1008.4 hPa 12.2 m/s 88.3 mm
07:00 13.3° 1004.8 hPa 9.3 m/s 98.6 mm 13.3° 1004.8 hPa 9.3 m/s 98.6 mm
13:00 12.0° 1017.7 hPa 2.7 m/s 0.6 mm
19:00 10.2° 1017.4 hPa 2.1 m/s 0.6 mm
 09:17     18:47    Daglengte: 9:30 Maandag 08 Nov
01:00 9.7° 1018.2 hPa 1.8 m/s 0.6 mm
07:00 9.4° 1018.6 hPa 1.8 m/s 0.5 mm
13:00 11.8° 1020.2 hPa 2.0 m/s 0.3 mm
19:00 10.1° 1020.3 hPa 1.4 m/s 0.4 mm
 09:19     18:46    Daglengte: 9:27 Dinsdag 09 Nov
01:00 9.8° 1021.0 hPa 1.2 m/s 0.4 mm
07:00 9.5° 1021.2 hPa 1.6 m/s 0.4 mm
13:00 12.0° 1022.9 hPa 2.2 m/s 0.2 mm
19:00 10.2° 1022.8 hPa 1.5 m/s 0.4 mm
 09:20     18:44    Daglengte: 9:24 Woensdag 10 Nov
01:00 9.6° 1023.5 hPa 1.2 m/s 0.4 mm
07:00 9.3° 1023.1 hPa 1.8 m/s 0.3 mm
13:00 12.2° 1023.6 hPa 1.7 m/s 0.4 mm
19:00 10.2° 1022.5 hPa 1.4 m/s 0.5 mm
 09:22     18:43    Daglengte: 9:21 Donderdag 11 Nov
01:00 9.5° 1022.5 hPa 0.7 m/s 0.4 mm
07:00 9.1° 1021.3 hPa 0.5 m/s 0.7 mm
13:00 11.9° 1021.3 hPa 1.0 m/s 0.5 mm
19:00 9.7° 1020.8 hPa 0.5 m/s 0.1 mm
 09:23     18:42    Daglengte: 9:19 Vrijdag 12 Nov
01:00 8.5° 1021.0 hPa 0.4 m/s 0.7 mm
07:00 7.9° 1020.6 hPa 0.6 m/s 0.3 mm
13:00 11.3° 1021.2 hPa 0.3 m/s 0.2 mm
FMI Hirlam - 7.5 km EWN WRFDA - 12 km DWD ICON - 7 km GFS - 25 km Basiskaart






























































Updatetijd (Europe/Brussels) Resolutie Lengte Stap
FMI Hirlam 14:00, 20:00, 02:00, 08:00 7.5 km 49h 1h
EWN WRFDA 09:30, 15:30, 21:30, 03:30 12 km 73h 1h
DWD ICON 11:45, 17:45, 23:45, 05:45 7 km 75h 1h
GFS 14:15, 20:15, 02:15, 08:15 25 km 237h 3h
30+ mm
25-30 mm
20-25 mm
15-20 mm
10-15 mm
6-10 mm
4-6 mm
2-4 mm
1-2 mm
0.5-1 mm
0.2-0.5 mm
0.1-0.2 mm
30+ mm
25-30 mm
20-25 mm
15-20 mm
10-15 mm
6-10 mm
4-6 mm
2-4 mm
1-2 mm
0.5-1 mm
0.2-0.5 mm
0.1-0.2 mm
Sneeuwval
Natte sneeuw
Hagel
Vorst
30+ mm
25-30 mm
20-25 mm
15-20 mm
10-15 mm
6-10 mm
4-6 mm
2-4 mm
1-2 mm
0.5-1 mm
0.2-0.5 mm
0.1-0.2 mm
Sneeuwval
Natte sneeuw
Hagel
Vorst
Onweer
50 mm
40 mm
30 mm
26 mm
22 mm
18 mm
14 mm
10 mm
9 mm
8 mm
7 mm
6 mm
5 mm
4.5 mm
4 mm
3.5 mm
3 mm
2.5 mm
2 mm
1.5 mm
1 mm
0.8 mm
0.6 mm
0.4 mm
0.2 mm
0.05 mm
35°
30°
25°
20°
15°
10°
-5°
-10°
-15°
-20°
-25°
-30°
-35°
33> m/s
29 m/s
25 m/s
21 m/s
17 m/s
14 m/s
11 m/s
8 m/s
5 m/s
3 m/s
0 m/s
2600 J/kg
2400 J/kg
2200 J/kg
2000 J/kg
1800 J/kg
1600 J/kg
1400 J/kg
1200 J/kg
1000 J/kg
800 J/kg
600 J/kg
400 J/kg
200 J/kg
70 dBZ
65 dBZ
60 dBZ
55 dBZ
50 dBZ
45 dBZ
40 dBZ
35 dBZ
30 dBZ
25 dBZ
20 dBZ
15 dBZ
10 dBZ
5 dBZ
-1 K
-2 K
-3 K
-4 K
-5 K
-6 K
-7 K
-8 K
-9 K
950 m²/s²
900 m²/s²
850 m²/s²
800 m²/s²
750 m²/s²
700 m²/s²
650 m²/s²
600 m²/s²
550 m²/s²
500 m²/s²
450 m²/s²
400 m²/s²
350 m²/s²
300 m²/s²
250 m²/s²
200 m²/s²
150 m²/s²
100 m²/s²
46 m/s
44 m/s
42 m/s
40 m/s
38 m/s
36 m/s
34 m/s
32 m/s
30 m/s
28 m/s
26 m/s
24 m/s
22 m/s
20 m/s
16 m/s
12 m/s
8 m/s
4 m/s
30 m/s
28 m/s
26 m/s
24 m/s
22 m/s
20 m/s
18 m/s
16 m/s
14 m/s
12 m/s
10 m/s
8 m/s
6 m/s
4 m/s
2 m/s
3.0
2.8
2.6
2.4
2.2
2.0
1.8
1.6
1.4
1.2
1.0
0.8
0.6
0.4
0.2
15
14
13
12
11
10
9
8
7
6
5
4
3
2
1
90%
80%
70%
60%
50%
40%
30%
20%
10%
42
40
38
36
34
32
30
28
26
24
22
20
18
16
14
12
90+ cm
80-90 cm
70-80 cm
60-70 cm
50-60 cm